Tracking 31027 objects as of 19-Jul-2025
HD Live streaming from Space Station
objects crossing your sky now

STARLINK-30711

Track STARLINK-30711 now!
10-day predictions
STARLINK-30711 is classified as:


NORAD ID: 57940
Int'l Code: 2023-148F
Perigee: 481.4 km
Apogee: 483.3 km
Inclination: 53.2 °
Period: 94.1 minutes
Semi major axis: 6853 km
RCS: Unknown
Launch date: September 25, 2023
Source: United States (US)
Launch site: AIR FORCE WESTERN TEST RANGE (AFWTR)
Your satellite tracking list
Your tracking list is empty




NASA's NSSDC Master Catalog

Two Line Element Set (TLE):
1 57940U 23148F   25199.83000369 -.00000141  00000-0  73796-5 0  9992
2 57940  53.1621  30.7261 0001418  71.6397 288.4758 15.30194134102614
Source of the keplerian elements: AFSPC